[[{"header":{"parameterUnit":"m.s-1","parameterCategory":1,"la1":30.2991,"la2":30.254,"lo1":-89.0895,"lo2":-89.0444,"dy":0.0017,"dx":0.0017,"nx":28,"ny":28,"refTime":"2023-11-04T21:00:00:Z","depth":0,"parameterNumber":2,"parameterNumberName":"U-component_of_WINDS"},"data":[0,0,0,0,0,0,0,0,0,0,0,0,0,0,0,0,0,0,0,0,0,0,0,0,0,0,0,0,0,0,0,0,0,0,0,0,0,0,0,0,0,0,0,0,0,0,0,0,0,0,0,0,0,0,0,0,0,0,0.1019,0.102,0,0.112,0.1121,0.1122,0.1189,0.1189,0.119,0.119,0.1294,0.1296,0.1298,0,0,0,0,0,0,0,0,0,0,0,0,0,0.0883,0.0885,0.1019,0.102,0.1021,0.1119,0.1121,0.1122,0.1189,0.1189,0.119,0.119,0.1293,0.1296,0.1299,0,0,0,0,0,0,0,0,0,0,0,0,0,0.0958,0.0886,0.1018,0.1066,0.1071,0.1119,0.1121,0.1123,0.1189,0.1189,0.119,0.1191,0.1292,0.1295,0.1299,0.1307,0,0,0.131,0.1311,0,0,0,0,0,0,0,0,0.0954,0.0963,0.1058,0.1063,0.1069,0.1142,0.1111,0.1184,0.1188,0.1144,0.119,0.1191,0.1243,0.125,0.1268,0.1312,0.1316,0.131,0.1312,0.1314,0.1315,0,0,0,0,0,0,0,0.0949,0.0959,0.1059,0.1059,0.1066,0.1082,0.1094,0.1125,0.1188,0.1148,0.1153,0.1164,0.1246,0.1264,0.1271,0.1318,0.131,0.1313,0.1315,0.1317,0.1371,0.1371,0,0,0,0,0,0,0.0936,0.0955,0.1055,0.1062,0.1012,0.1084,0.1097,0.1118,0.1188,0.12,0.1163,0.1167,0.1258,0.1267,0.1275,0.1287,0.1314,0.1317,0.1319,0.1372,0.1371,0.1371,0,0,0,0,0,0,0.0933,0.0944,0.1051,0.101,0.1024,0.1086,0.1109,0.112,0.1138,0.12,0.1212,0.1171,0.1259,0.127,0.1298,0.1292,0.1318,0.1322,0.1373,0.1372,0.1371,0.1313,0,0,0,0,0,0,0.0929,0.0943,0.0947,0.1009,0.1026,0.1073,0.1109,0.1121,0.1144,0.1149,0.121,0.122,0.126,0.1292,0.1301,0.1297,0.1324,0.1374,0.1372,0.1371,0.1316,0.131,0.1305,0,0,0,0,0,0.0924,0.0927,0.0947,0.0959,0.1033,0.1073,0.1082,0.1128,0.1143,0.1147,0.1187,0.1218,0.1291,0.1295,0.1306,0.1302,0.1374,0.1373,0.1371,0.1318,0.1311,0.1306,0,0,0,0,0,0,0.0863,0.0936,0.0959,0.0983,0.1021,0.1084,0.1091,0.112,0.1155,0.1158,0.1214,0.1227,0.1249,0.1279,0.1281,0.1313,0.1336,0.1337,0.1292,0.1286,0.1281,0.1273,0.1327,0,0,0,0,0,0.0852,0.0879,0.0941,0.0956,0.0974,0.1029,0.1048,0.108,0.1122,0.1138,0.118,0.1219,0.1251,0.127,0.1303,0.1321,0.1334,0.1323,0.1318,0.1314,0.1313,0.1323,0.1318,0.1366,0.1366,0.1366,0,0,0.0831,0.0874,0.0888,0.0945,0.0979,0.1004,0.1042,0.1068,0.1087,0.1142,0.1171,0.1202,0.125,0.1272,0.1284,0.1298,0.1303,0.1312,0.1308,0.131,0.1321,0.1316,0.1312,0.1365,0.1365,0.1365,0,0,0.0804,0.084,0.0856,0.0888,0.0938,0.0974,0.0977,0.1036,0.1058,0.1088,0.1129,0.1153,0.1206,0.1238,0.1261,0.1244,0.1273,0.1253,0.1226,0.1234,0.123,0.1227,0.1219,0.1216,0.1253,0.1252,0.1252,0,0.0771,0.0812,0.086,0.0883,0.0906,0.0957,0.0972,0.1001,0.1059,0.1073,0.1088,0.1155,0.1191,0.122,0.1215,0.1233,0.1237,0.1246,0.1227,0.1224,0.1222,0.1215,0.1212,0.125,0.125,0.125,0.125,0,0.0767,0.0794,0.0801,0.0854,0.0879,0.0898,0.0948,0.0967,0.0996,0.103,0.1059,0.1103,0.1144,0.1154,0.1183,0.1187,0.1193,0.1217,0.1241,0.1214,0.1208,0.1206,0.1245,0.1246,0.1247,0.1248,0,0,0.0706,0.0785,0.0786,0.081,0.0868,0.089,0.091,0.095,0.0964,0.1002,0.102,0.1063,0.1084,0.111,0.1144,0.1151,0.1132,0.1173,0.1175,0.1162,0.1136,0.1117,0.1113,0.1152,0.1152,0.1152,0.1131,0,0.0687,0.0727,0.077,0.0794,0.0819,0.0866,0.0884,0.0921,0.0953,0.0978,0.1014,0.1042,0.1069,0.1085,0.1094,0.1132,0.1127,0.1135,0.1168,0.1169,0.1153,0.1111,0.1091,0.107,0.113,0.1129,0.1129,0,0.067,0.0704,0.0731,0.0784,0.0796,0.0811,0.085,0.0874,0.0916,0.0939,0.0967,0.1002,0.1025,0.1047,0.1078,0.1082,0.1098,0.1119,0.1119,0.1123,0.1146,0.1112,0.1064,0.106,0.1127,0.1127,0.1127,0,0.062,0.0673,0.0695,0.0715,0.0778,0.0787,0.0814,0.0857,0.0878,0.0912,0.0925,0.0962,0.0981,0.1008,0.1051,0.1064,0.1077,0.1104,0.1095,0.1094,0.1095,0.1095,0.1048,0.1108,0.1108,0.1108,0.1108,0,0.0594,0.0607,0.0673,0.0687,0.0703,0.0753,0.0767,0.0798,0.0836,0.0855,0.0899,0.0916,0.0973,0.0996,0.103,0.105,0.1059,0.1077,0.1085,0.1072,0.1069,0.1083,0.1085,0.1108,0.1108,0.1108,0.1108,0,0.0541,0.0586,0.0612,0.067,0.0685,0.0694,0.0743,0.0757,0.0791,0.0815,0.0823,0.0877,0.0907,0.0952,0.0996,0.1019,0.1032,0.1048,0.1018,0.1022,0.1011,0.101,0.097,0.0967,0.103,0.1029,0.1029,0,0.052,0.0531,0.0589,0.0605,0.0631,0.0656,0.0677,0.0726,0.0746,0.0793,0.0801,0.0834,0.0863,0.0908,0.0951,0.0984,0.0999,0.0983,0.1004,0.099,0.0996,0.0994,0.0995,0.0977,0.0976,0.0975,0.0975,0,0.0478,0.0499,0.0527,0.0563,0.0586,0.0617,0.0649,0.066,0.0716,0.0735,0.0766,0.0788,0.0832,0.0864,0.0902,0.0929,0.096,0.0968,0.0967,0.0953,0.0934,0.0942,0.1002,0.0968,0.0969,0.0969,0.097,0.097,0.0439,0.0451,0.0493,0.0522,0.0552,0.0581,0.0596,0.0631,0.0658,0.0697,0.0725,0.0753,0.0793,0.0848,0.0873,0.0895,0.0909,0.0909,0.0908,0.0907,0.0901,0.0931,0.0903,0.0903,0.0903,0.0903,0.0904,0,0.0398,0.0427,0.0453,0.0497,0.0519,0.0547,0.0584,0.0601,0.0625,0.066,0.0687,0.0721,0.0752,0.0796,0.0829,0.0838,0.0853,0.0845,0.0844,0.0849,0.0888,0.0884,0.0832,0.0832,0.0832,0.0832,0.0832,0.0832,0.0378,0.0399,0.0425,0.0459,0.0488,0.0516,0.0535,0.0561,0.0589,0.0624,0.065,0.0678,0.0716,0.0752,0.0781,0.0793,0.0802,0.0789,0.0805,0.084,0.0847,0.0853,0.085,0.0791,0.0791,0.0765,0.0764,0.0764]},{"header":{"parameterUnit":"m.s-1","parameterCategory":1,"la1":30.2991,"la2":30.254,"lo1":-89.0895,"lo2":-89.0444,"dy":0.0017,"dx":0.0017,"nx":28,"ny":28,"refTime":"2023-11-04T21:00:00:Z","depth":0,"parameterNumber":3,"parameterNumberName":"V-component_of_WINDS"},"data":[0,0,0,0,0,0,0,0,0,0,0,0,0,0,0,0,0,0,0,0,0,0,0,0,0,0,0,0,0,0,0,0,0,0,0,0,0,0,0,0,0,0,0,0,0,0,0,0,0,0,0,0,0,0,0,0,0,0,2.005,2.0049,0,2.0012,2.0011,2.0011,2.003,2.0031,2.0032,2.0033,1.9987,1.9985,1.9983,0,0,0,0,0,0,0,0,0,0,0,0,0,2.0133,2.0132,2.005,2.0049,2.0049,2.0012,2.0011,2.0011,2.003,2.0031,2.0033,2.0034,1.9988,1.9986,1.9983,0,0,0,0,0,0,0,0,0,0,0,0,0,2.0096,2.0131,2.005,2.0054,2.0054,2.0012,2.0011,2.001,2.003,2.0031,2.0033,2.0034,1.9989,1.9986,1.9983,1.9932,0,0,1.9973,1.9971,0,0,0,0,0,0,0,0,2.0098,2.0093,2.0054,2.0054,2.0054,2.0028,2.0024,1.9984,2.0029,2.0039,2.0033,2.0035,1.9999,1.9995,1.9984,1.9929,1.9927,1.9972,1.997,1.9969,1.9968,0,0,0,0,0,0,0,2.0101,2.0095,2.0035,2.0053,2.0053,2.0056,2.0053,2.0016,2.0011,2.0038,2.004,2.0035,1.9999,1.9987,1.9983,1.9927,1.9972,1.997,1.9968,1.9966,1.9826,1.9824,0,0,0,0,0,0,2.0104,2.0097,2.0036,2.0033,2.0081,2.0053,2.0049,2.0034,2.0011,2.0009,2.0034,2.0036,1.9992,1.9987,1.9982,1.9919,1.9969,1.9966,1.9964,1.9828,1.9826,1.9824,0,0,0,0,0,0,2.0106,2.0098,2.0037,2.0066,2.0058,2.005,2.0033,2.0033,2.0021,2.0008,2.0006,2.0023,1.9993,1.9986,1.9944,1.9917,1.9964,1.9962,1.983,1.9827,1.9825,1.9793,0,0,0,0,0,0,2.0108,2.0099,2.0081,2.0065,2.0056,2.0002,2.0032,2.0031,2.0016,2.0019,1.9997,1.9995,1.9994,1.9949,1.9941,1.9914,1.9959,1.9832,1.9829,1.9825,1.9796,1.979,1.9784,0,0,0,0,0,2.0111,2.0072,2.008,2.0072,2.0034,2.0,1.9995,1.9996,2.0014,1.9994,1.9986,1.9996,1.9922,1.9944,1.9935,1.9907,1.9834,1.983,1.9826,1.9799,1.9791,1.9784,0,0,0,0,0,0,2.0083,2.007,2.0078,2.0034,2.0018,2.0004,1.9979,1.9988,1.9965,1.9968,1.9969,1.9964,1.9919,1.9909,1.9934,1.9855,1.988,1.9874,1.9863,1.9855,1.9849,1.9851,1.9956,0,0,0,0,0,2.0072,2.0048,2.0038,1.9999,1.9991,1.9987,1.9972,1.9975,1.9957,1.995,1.9938,1.9919,1.9892,1.9874,1.9848,1.9796,1.979,1.9772,1.9766,1.9761,1.9754,1.9724,1.9715,1.9811,1.9811,1.9811,0,0,2.0048,2.0039,2.0023,1.9993,1.9981,1.9954,1.9981,1.9951,1.993,1.9945,1.9904,1.9895,1.9874,1.9826,1.9804,1.9816,1.9727,1.9756,1.9752,1.9748,1.9719,1.971,1.9702,1.9808,1.9808,1.9809,0,0,1.9991,1.9982,1.9948,1.9936,1.9919,1.9916,1.9908,1.9892,1.9887,1.9847,1.9858,1.9832,1.9785,1.9769,1.9754,1.9691,1.9698,1.9683,1.9649,1.9619,1.9612,1.9605,1.9579,1.9571,1.9677,1.9677,1.9677,0,1.9962,1.9924,1.9929,1.9899,1.9884,1.99,1.9864,1.9851,1.9825,1.9814,1.9829,1.977,1.9756,1.9704,1.9689,1.9678,1.9666,1.9684,1.9613,1.9606,1.96,1.9575,1.9566,1.9675,1.9675,1.9676,1.9676,0,1.9889,1.9861,1.9836,1.9812,1.9795,1.9762,1.9761,1.9743,1.9747,1.9742,1.97,1.9685,1.9656,1.9644,1.9647,1.9592,1.9599,1.9614,1.9638,1.9589,1.9566,1.9557,1.9672,1.9673,1.9674,1.9674,0,0,1.981,1.9791,1.9781,1.977,1.9752,1.973,1.9697,1.967,1.9653,1.9635,1.9606,1.9566,1.9579,1.9563,1.9565,1.9539,1.9487,1.9556,1.9555,1.9541,1.9421,1.9408,1.9398,1.9493,1.9491,1.949,1.9422,0,1.9748,1.9693,1.9697,1.9643,1.9616,1.9631,1.9602,1.9586,1.9581,1.9556,1.955,1.9521,1.9542,1.9532,1.9508,1.9498,1.9462,1.9504,1.9462,1.946,1.9464,1.9386,1.9373,1.9309,1.9413,1.9412,1.9411,0,1.9669,1.965,1.9594,1.9579,1.9568,1.9542,1.9517,1.9495,1.9477,1.9475,1.9457,1.9463,1.9427,1.9455,1.9404,1.9432,1.9416,1.9408,1.9406,1.9399,1.943,1.9374,1.9289,1.9278,1.9397,1.9398,1.9399,0,1.9613,1.9574,1.9535,1.9525,1.9508,1.9489,1.948,1.9464,1.9448,1.9426,1.9415,1.9388,1.9373,1.9351,1.9349,1.937,1.9296,1.9325,1.9291,1.929,1.9271,1.9272,1.9179,1.9266,1.9267,1.9267,1.9267,0,1.9543,1.9507,1.9509,1.9485,1.9445,1.945,1.9409,1.9402,1.9388,1.9361,1.9372,1.9346,1.9346,1.9318,1.9317,1.9273,1.9267,1.9262,1.9261,1.9259,1.9259,1.9245,1.9248,1.9264,1.9265,1.9265,1.9266,0,1.9472,1.9473,1.9431,1.9419,1.9415,1.9385,1.9374,1.9349,1.9346,1.9311,1.9303,1.9297,1.9265,1.9262,1.9225,1.9223,1.9169,1.9175,1.9176,1.9175,1.914,1.9142,1.9033,1.9017,1.9118,1.9117,1.9116,0,1.9426,1.9399,1.9384,1.9368,1.9359,1.9332,1.9316,1.932,1.9301,1.9279,1.9257,1.9227,1.9203,1.9151,1.9141,1.9112,1.9115,1.9079,1.911,1.9108,1.911,1.9111,1.9107,1.9071,1.907,1.9069,1.9069,0,1.9341,1.9343,1.932,1.9297,1.9278,1.9259,1.9242,1.9227,1.9229,1.9208,1.9176,1.9158,1.9121,1.9089,1.9061,1.905,1.9057,1.9059,1.9049,1.9045,1.9045,1.9041,1.9155,1.9061,1.9062,1.9062,1.9063,1.9063,1.9279,1.9255,1.9241,1.9215,1.9203,1.9186,1.9162,1.9157,1.9132,1.9103,1.9107,1.9071,1.9053,1.9016,1.9003,1.8974,1.8985,1.8971,1.8967,1.8963,1.8958,1.9053,1.8969,1.8969,1.8969,1.8969,1.8969,0,1.9193,1.9185,1.9161,1.9137,1.9116,1.913,1.9111,1.9091,1.906,1.9044,1.9021,1.8984,1.8954,1.8943,1.8913,1.8891,1.8894,1.8883,1.8882,1.8879,1.8951,1.8961,1.8881,1.8881,1.8881,1.8881,1.8881,1.8881,1.9145,1.9105,1.9105,1.9058,1.905,1.9017,1.9005,1.8989,1.8975,1.8934,1.891,1.8904,1.8889,1.8858,1.883,1.8828,1.8814,1.8801,1.8799,1.8865,1.8874,1.8883,1.8892,1.8799,1.8799,1.873,1.8729,1.8728]}]]